Location: Chavenne
(46.6022°N, 3.2951°E)
Time: 00:50:38
(UTC+00:00)

NOSS 3-4 (C) - Pass Details

Date: 09 April 2020
Orbit: 894 x 1319 km, 63.4° (Epoch: 01 June)

Event Time Altitude Azimuth Distance (km) Brightness Sun altitude
Rises 19:25:03 0° 319° (NW) 3,829 7.9 -10.3°
Reaches altitude 10° 19:27:34 10° 318° (NW) 2,929 7.2 -10.7°
Maximum altitude 19:34:34 74° 235° (SW) 1,214 4.1 -11.8°
Drops below altitude 10° 19:42:17 10° 152° (SSE) 3,215 5.7 -12.9°
Enters shadow 19:42:39 - 152° (SSE) 3,343 5.8 -13.0°
